Zurück zum Katalog

INTELSAT 2-F1

AktivKommunikationHEO
NORAD 2514·PAYLOAD· XX

Gestartet Oct 26, 1966 von Cape Canaveral Space Force Station

Loading…

Nächste Überflüge (nächste 24 Stunden)

TLE

AktuellSource: Space-Track

Epoche: Sep 14, 2026, 09:19 UTC

1 02514U 66096A   26257.38827849 -.00000221  00000-0  00000-0 0  9996
2 02514  18.3078  38.9944 6388519 211.6302  85.5725  2.00314972 96604

Verfolge INTELSAT 2-F1 in Echtzeit mit AllMySat

Download on the App Store